timestamp,wind_dir_avg,wind_spd_avg,wind_spd_max_dir,wind_spd_gust,battery_voltage,lat,long
2024-05-09 00:04:00+00:00,315.0,0.01,48.0,0.0,12.57,47.59359,-54.27349
2024-05-09 00:14:00+00:00,315.0,0.01,48.0,0.0,12.25,47.59359,-54.27349
2024-05-09 00:24:00+00:00,315.0,0.01,48.0,0.0,12.25,47.59359,-54.27349
2024-05-09 00:34:00+00:00,315.0,0.01,48.0,0.0,12.25,47.59359,-54.27349
2024-05-09 00:44:00+00:00,315.0,0.01,48.0,0.0,12.25,47.59359,-54.27349
2024-05-09 00:54:00+00:00,315.0,0.01,48.0,0.0,12.25,47.59359,-54.27349
2024-05-09 01:04:00+00:00,315.0,0.01,48.0,0.0,12.25,47.59359,-54.27349
2024-05-09 01:14:00+00:00,315.0,0.01,48.0,0.0,12.25,47.59359,-54.27349
2024-05-09 01:24:00+00:00,315.0,0.01,48.0,0.0,12.25,47.59359,-54.27349
2024-05-09 01:34:00+00:00,315.0,0.01,48.0,0.0,12.25,47.59359,-54.27349
2024-05-09 01:44:00+00:00,315.0,0.01,48.0,0.0,12.25,47.59359,-54.27349
2024-05-09 01:54:00+00:00,315.0,0.01,48.0,0.0,12.25,47.59359,-54.27349
2024-05-09 02:04:00+00:00,315.0,0.01,48.0,0.0,12.25,47.59359,-54.27349
2024-05-09 02:14:00+00:00,315.0,0.01,48.0,0.0,12.17,47.59359,-54.27349
2024-05-09 02:24:00+00:00,315.0,0.01,48.0,0.0,12.17,47.59359,-54.27349
2024-05-09 02:34:00+00:00,315.0,0.01,48.0,0.0,12.17,47.59359,-54.27349
2024-05-09 02:44:00+00:00,315.0,0.01,48.0,0.0,12.17,47.59359,-54.27349
2024-05-09 02:54:00+00:00,315.0,0.01,48.0,0.0,12.17,47.59359,-54.27349
2024-05-09 03:04:00+00:00,315.0,0.01,48.0,0.0,12.17,47.59359,-54.27349
2024-05-09 03:14:00+00:00,315.0,0.01,48.0,0.0,12.17,47.59359,-54.27349
2024-05-09 03:24:00+00:00,315.0,0.01,48.0,0.0,12.17,47.59359,-54.27349
2024-05-09 03:34:00+00:00,315.0,0.01,48.0,0.0,12.17,47.59359,-54.27349
2024-05-09 03:44:00+00:00,315.0,0.01,48.0,0.0,12.17,47.59359,-54.27349
2024-05-09 03:54:00+00:00,315.0,0.01,48.0,0.0,12.17,47.59359,-54.27349
2024-05-09 04:04:00+00:00,315.0,0.01,48.0,0.0,12.17,47.59359,-54.27349
2024-05-09 04:14:00+00:00,315.0,0.01,48.0,0.0,12.17,47.59359,-54.27349
2024-05-09 04:24:00+00:00,315.0,0.01,48.0,0.0,12.17,47.59359,-54.27349
2024-05-09 04:34:00+00:00,315.0,0.01,48.0,0.0,12.17,47.59359,-54.27349
2024-05-09 04:44:00+00:00,315.0,0.01,48.0,0.0,12.17,47.59359,-54.27349
2024-05-09 04:54:00+00:00,315.0,0.01,48.0,0.0,12.17,47.59359,-54.27349
2024-05-09 05:04:00+00:00,315.0,0.01,48.0,0.0,12.17,47.59359,-54.27349
2024-05-09 05:14:01+00:00,315.0,0.01,48.0,0.0,12.17,47.59359,-54.27349
2024-05-09 05:24:01+00:00,315.0,0.01,48.0,0.0,12.17,47.59359,-54.27349
2024-05-09 05:34:01+00:00,315.0,0.01,48.0,0.0,12.17,47.59359,-54.27349
2024-05-09 05:44:01+00:00,315.0,0.01,48.0,0.0,12.17,47.59359,-54.27349
2024-05-09 05:54:01+00:00,315.0,0.01,48.0,0.0,12.17,47.59359,-54.27349
2024-05-09 06:04:01+00:00,315.0,0.01,48.0,0.0,12.17,47.59359,-54.27349
2024-05-09 06:14:01+00:00,315.0,0.01,48.0,0.0,12.09,47.59359,-54.27349
2024-05-09 06:24:01+00:00,315.0,0.01,48.0,0.0,12.09,47.59359,-54.27349
2024-05-09 06:34:01+00:00,315.0,0.01,48.0,0.0,12.09,47.59359,-54.27349
2024-05-09 06:44:01+00:00,315.0,0.01,48.0,0.0,12.09,47.59359,-54.27349
2024-05-09 06:54:01+00:00,315.0,0.01,48.0,0.0,12.09,47.59359,-54.27349
2024-05-09 07:04:01+00:00,315.0,0.01,48.0,0.0,12.09,47.59359,-54.27349
2024-05-09 07:14:00+00:00,315.0,0.01,48.0,0.0,12.09,47.59359,-54.27349
2024-05-09 07:24:00+00:00,315.0,0.01,48.0,0.0,12.09,47.59359,-54.27349
2024-05-09 07:34:00+00:00,315.0,0.01,48.0,0.0,12.09,47.59359,-54.27349
2024-05-09 07:44:00+00:00,315.0,0.01,48.0,0.0,12.09,47.59359,-54.27349
2024-05-09 07:54:00+00:00,315.0,0.01,48.0,0.0,12.09,47.59359,-54.27349
2024-05-09 08:04:00+00:00,315.0,0.01,48.0,0.0,12.09,47.59359,-54.27349
2024-05-09 08:14:00+00:00,315.0,0.01,48.0,0.0,12.01,47.59359,-54.27349
2024-05-09 08:24:00+00:00,315.0,0.01,48.0,0.0,12.01,47.59359,-54.27349
2024-05-09 08:34:00+00:00,315.0,0.01,48.0,0.0,12.01,47.59359,-54.27349
2024-05-09 08:44:00+00:00,315.0,0.01,48.0,0.0,12.01,47.59359,-54.27349
2024-05-09 08:54:00+00:00,315.0,0.01,48.0,0.0,12.01,47.59359,-54.27349
2024-05-09 09:04:00+00:00,315.0,0.01,48.0,0.0,12.01,47.59359,-54.27349
2024-05-09 10:14:00+00:00,315.0,0.01,48.0,0.0,13.13,47.59359,-54.27349
2024-05-09 10:24:00+00:00,315.0,0.01,48.0,0.0,13.13,47.59359,-54.27349
2024-05-09 10:34:00+00:00,315.0,0.01,48.0,0.0,13.13,47.59359,-54.27349
2024-05-09 10:44:00+00:00,315.0,0.01,48.0,0.0,13.13,47.59359,-54.27349
2024-05-09 10:54:00+00:00,315.0,0.01,48.0,0.0,13.13,47.59359,-54.27349
2024-05-09 11:04:00+00:00,315.0,0.01,48.0,0.0,13.13,47.59359,-54.27349
2024-05-09 11:14:00+00:00,315.0,0.01,48.0,0.0,13.76,47.59359,-54.27349
2024-05-09 11:24:00+00:00,315.0,0.01,48.0,0.0,13.76,47.59359,-54.27349
2024-05-09 11:34:00+00:00,315.0,0.01,48.0,0.0,13.76,47.59359,-54.27349
2024-05-09 11:44:00+00:00,315.0,0.01,48.0,0.0,13.76,47.59359,-54.27349
2024-05-09 11:54:00+00:00,315.0,0.01,48.0,0.0,13.76,47.59359,-54.27349
2024-05-09 12:04:00+00:00,315.0,0.01,48.0,0.0,13.76,47.59359,-54.27349
2024-05-09 12:14:01+00:00,315.0,0.01,48.0,0.0,14.24,47.59359,-54.27349
2024-05-09 12:24:01+00:00,315.0,0.01,48.0,0.0,14.24,47.59359,-54.27349
2024-05-09 12:34:01+00:00,315.0,0.01,48.0,0.0,14.24,47.59359,-54.27349
2024-05-09 12:44:01+00:00,315.0,0.01,48.0,0.0,14.24,47.59359,-54.27349
2024-05-09 12:54:01+00:00,315.0,0.01,48.0,0.0,14.24,47.59359,-54.27349
2024-05-09 13:04:01+00:00,315.0,0.01,48.0,0.0,14.24,47.59359,-54.27349
2024-05-09 13:14:00+00:00,315.0,0.01,48.0,0.0,14.0,47.59359,-54.27349
2024-05-09 13:24:00+00:00,315.0,0.01,48.0,0.0,14.0,47.59359,-54.27349
2024-05-09 13:34:00+00:00,315.0,0.01,48.0,0.0,14.0,47.59359,-54.27349
2024-05-09 13:44:00+00:00,315.0,0.01,48.0,0.0,14.0,47.59359,-54.27349
2024-05-09 13:54:00+00:00,315.0,0.01,48.0,0.0,14.0,47.59359,-54.27349
2024-05-09 14:04:00+00:00,315.0,0.01,48.0,0.0,14.0,47.59359,-54.27349
2024-05-09 14:14:01+00:00,315.0,0.01,48.0,0.0,13.6,47.59359,-54.27349
2024-05-09 14:24:01+00:00,315.0,0.01,48.0,0.0,13.6,47.59359,-54.27349
2024-05-09 14:34:01+00:00,315.0,0.01,48.0,0.0,13.6,47.59359,-54.27349
2024-05-09 14:44:01+00:00,315.0,0.01,48.0,0.0,13.6,47.59359,-54.27349
2024-05-09 14:54:01+00:00,315.0,0.01,48.0,0.0,13.6,47.59359,-54.27349
2024-05-09 15:04:01+00:00,315.0,0.01,48.0,0.0,13.6,47.59359,-54.27349
2024-05-09 15:14:00+00:00,315.0,0.01,48.0,0.0,13.76,47.59359,-54.27349
2024-05-09 15:24:00+00:00,315.0,0.01,48.0,0.0,13.76,47.59359,-54.27349
2024-05-09 15:34:00+00:00,315.0,0.01,48.0,0.0,13.76,47.59359,-54.27349
2024-05-09 15:44:00+00:00,315.0,0.01,48.0,0.0,13.76,47.59359,-54.27349
2024-05-09 15:54:00+00:00,315.0,0.01,48.0,0.0,13.76,47.59359,-54.27349
2024-05-09 16:04:00+00:00,315.0,0.01,48.0,0.0,13.76,47.59359,-54.27349
2024-05-09 16:14:00+00:00,315.0,0.01,48.0,0.0,13.68,47.59359,-54.27349
2024-05-09 16:24:00+00:00,315.0,0.01,48.0,0.0,13.68,47.59359,-54.27349
2024-05-09 16:34:00+00:00,315.0,0.01,48.0,0.0,13.68,47.59359,-54.27349
2024-05-09 16:44:00+00:00,315.0,0.01,48.0,0.0,13.68,47.59359,-54.27349
2024-05-09 16:54:00+00:00,315.0,0.01,48.0,0.0,13.68,47.59359,-54.27349
2024-05-09 17:04:00+00:00,315.0,0.01,48.0,0.0,13.68,47.59359,-54.27349
2024-05-09 17:14:00+00:00,315.0,0.01,48.0,0.0,13.84,47.59359,-54.27349
2024-05-09 17:24:00+00:00,315.0,0.01,48.0,0.0,13.84,47.59359,-54.27349
2024-05-09 17:34:00+00:00,315.0,0.01,48.0,0.0,13.84,47.59359,-54.27349
2024-05-09 17:44:00+00:00,315.0,0.01,48.0,0.0,13.84,47.59359,-54.27349
2024-05-09 17:54:00+00:00,315.0,0.01,48.0,0.0,13.84,47.59359,-54.27349
2024-05-09 18:04:00+00:00,315.0,0.01,48.0,0.0,13.84,47.59359,-54.27349
2024-05-09 18:14:00+00:00,315.0,0.01,48.0,0.0,13.68,47.59359,-54.27349
2024-05-09 18:24:00+00:00,315.0,0.01,48.0,0.0,13.68,47.59359,-54.27349
2024-05-09 18:34:00+00:00,315.0,0.01,48.0,0.0,13.68,47.59359,-54.27349
2024-05-09 18:44:00+00:00,315.0,0.01,48.0,0.0,13.68,47.59359,-54.27349
2024-05-09 18:54:00+00:00,315.0,0.01,48.0,0.0,13.68,47.59359,-54.27349
2024-05-09 19:04:00+00:00,315.0,0.01,48.0,0.0,13.68,47.59359,-54.27349
2024-05-09 19:14:00+00:00,315.0,0.01,48.0,0.0,13.53,47.59359,-54.27349
2024-05-09 19:24:00+00:00,315.0,0.01,48.0,0.0,13.53,47.59359,-54.27349
2024-05-09 19:34:00+00:00,315.0,0.01,48.0,0.0,13.53,47.59359,-54.27349
2024-05-09 19:44:00+00:00,315.0,0.01,48.0,0.0,13.53,47.59359,-54.27349
2024-05-09 19:54:00+00:00,315.0,0.01,48.0,0.0,13.53,47.59359,-54.27349
2024-05-09 20:04:00+00:00,315.0,0.01,48.0,0.0,13.53,47.59359,-54.27349
2024-05-09 20:14:00+00:00,315.0,0.01,48.0,0.0,13.53,47.59359,-54.27349
2024-05-09 20:24:00+00:00,315.0,0.01,48.0,0.0,13.53,47.59359,-54.27349
2024-05-09 20:34:00+00:00,315.0,0.01,48.0,0.0,13.53,47.59359,-54.27349
2024-05-09 20:44:00+00:00,315.0,0.01,48.0,0.0,13.53,47.59359,-54.27349
2024-05-09 20:54:00+00:00,315.0,0.01,48.0,0.0,13.53,47.59359,-54.27349
2024-05-09 21:04:00+00:00,315.0,0.01,48.0,0.0,13.53,47.59359,-54.27349
2024-05-09 21:14:00+00:00,315.0,0.01,48.0,0.0,13.44,47.59359,-54.27349
2024-05-09 21:24:00+00:00,315.0,0.01,48.0,0.0,13.44,47.59359,-54.27349
2024-05-09 21:34:00+00:00,315.0,0.01,48.0,0.0,13.44,47.59359,-54.27349
2024-05-09 21:44:00+00:00,315.0,0.01,48.0,0.0,13.44,47.59359,-54.27349
2024-05-09 21:54:00+00:00,315.0,0.01,48.0,0.0,13.44,47.59359,-54.27349
2024-05-09 22:04:00+00:00,315.0,0.01,48.0,0.0,13.44,47.59359,-54.27349
2024-05-09 22:14:00+00:00,315.0,0.01,48.0,0.0,13.13,47.59359,-54.27349
2024-05-09 22:24:00+00:00,315.0,0.01,48.0,0.0,13.13,47.59359,-54.27349
2024-05-09 22:34:00+00:00,315.0,0.01,48.0,0.0,13.13,47.59359,-54.27349
2024-05-09 22:44:00+00:00,315.0,0.01,48.0,0.0,13.13,47.59359,-54.27349
2024-05-09 22:54:00+00:00,315.0,0.01,48.0,0.0,13.13,47.59359,-54.27349
2024-05-09 23:04:00+00:00,315.0,0.01,48.0,0.0,13.13,47.59359,-54.27349
2024-05-09 23:14:00+00:00,315.0,0.01,48.0,0.0,12.57,47.59359,-54.27349
2024-05-09 23:24:00+00:00,315.0,0.01,48.0,0.0,12.57,47.59359,-54.27349
2024-05-09 23:34:00+00:00,315.0,0.01,48.0,0.0,12.57,47.59359,-54.27349
2024-05-09 23:44:00+00:00,315.0,0.01,48.0,0.0,12.57,47.59359,-54.27349
2024-05-09 23:54:00+00:00,315.0,0.01,48.0,0.0,12.57,47.59359,-54.27349
